GFSSE_500_rhum_336.txt.gz
RH
6 5 5 7 7 7 7 8 8 9 10 11 11 12 14 14 15 15 15 15 14 13 12 11 10 8 8 7 7 6 6 6 6 6 5 4 4 3 3 3 2 3 5
8 8 6 7 9 9 8 8 9 10 11 12 12 13 14 14 15 17 18 17 17 16 14 12 10 8 8 7 7 7 7 7 6 6 5 4 4 3 3 3 3 3 5
8 7 8 9 9 9 9 9 9 10 12 12 13 13 14 14 15 17 19 20 19 17 15 14 12 10 8 9 9 8 7 6 6 5 6 5 4 3 3 3 3 3 3
7 7 8 9 10 9 9 10 10 12 13 13 14 14 15 15 16 18 20 23 23 21 18 16 15 11 9 9 10 10 9 7 6 6 6 5 5 4 4 4 4 3 4
6 7 7 9 9 10 10 11 12 13 14 14 15 16 16 17 17 18 19 22 24 24 22 20 19 16 10 9 10 10 9 8 6 6 7 7 7 7 6 6 6 4 4
7 7 7 8 9 10 11 12 14 15 15 16 16 18 19 20 20 20 21 23 26 26 26 24 22 21 18 10 9 10 8 7 8 9 9 9 8 8 7 7 7 6 4
7 7 7 7 9 10 12 14 16 16 17 18 18 19 20 22 23 25 26 26 28 29 28 27 26 26 25 17 11 10 8 9 10 11 10 9 8 8 8 8 8 7 6
6 7 7 8 10 12 14 15 16 18 17 19 21 21 21 22 24 27 30 32 33 34 34 31 28 29 28 17 13 13 12 12 13 11 10 10 10 10 10 9 9 9 8
7 7 8 10 11 12 15 16 17 19 22 22 24 25 23 22 22 23 30 36 38 38 37 32 32 35 25 17 16 18 16 15 13 12 11 10 10 11 10 9 7 7 10
8 9 10 11 12 15 17 21 21 24 25 25 24 24 23 22 20 21 26 28 33 39 43 40 43 33 21 20 21 22 19 17 16 13 11 10 9 8 6 4 3 4 8
10 11 13 14 15 17 20 23 24 26 26 26 25 25 25 24 26 28 29 29 36 45 50 50 53 28 22 23 23 22 20 16 13 11 10 8 7 6 3 2 2 2 4
11 12 14 15 19 20 23 24 25 27 28 29 29 31 35 32 30 29 29 33 46 53 51 56 57 31 24 26 26 23 16 14 12 9 7 6 3 2 3 4 5 4 12
13 13 14 17 20 23 26 26 29 31 32 34 37 43 39 33 29 28 35 48 58 55 62 54 31 33 36 28 20 18 16 14 11 8 4 3 3 7 10 12 14 10 34
16 16 18 20 23 26 29 32 34 35 37 38 43 46 39 35 31 38 50 56 55 68 51 43 48 38 32 22 18 18 15 10 6 3 4 8 12 17 17 30 42 57 66
17 17 21 23 26 30 34 36 38 40 42 44 49 47 42 38 36 46 53 55 71 58 54 55 41 34 25 22 18 12 7 4 4 7 10 13 14 19 23 37 51 61 65
17 18 22 27 31 34 39 43 46 44 48 53 54 50 42 40 42 45 58 75 70 63 56 45 37 30 24 17 8 4 3 6 12 14 11 11 12 19 28 33 36 49 64
21 24 26 29 33 39 44 48 53 56 61 62 56 48 46 44 47 63 80 76 68 56 49 40 30 23 14 5 2 4 10 15 16 12 9 8 9 18 28 29 22 34 48
26 28 30 34 41 42 50 57 63 67 69 68 60 51 51 48 72 82 75 70 53 51 44 32 21 12 4 4 7 12 18 17 12 8 8 8 8 17 25 25 20 23 37
29 33 37 41 43 52 57 63 71 73 76 75 71 66 58 74 84 74 67 54 50 41 33 22 9 2 5 12 15 16 16 12 8 8 8 8 8 11 22 26 25 34 30
35 40 42 41 45 52 61 73 78 80 80 80 72 72 73 74 74 67 58 55 41 29 20 6 2 4 7 14 18 12 10 8 8 7 7 7 7 10 17 26 30 39 23
42 44 48 48 48 56 75 83 88 89 86 87 78 83 62 67 68 66 54 46 31 18 4 3 5 8 10 11 11 11 8 8 8 8 7 7 7 9 12 27 37 43 29
46 49 56 58 54 66 84 90 90 91 96 93 90 70 60 64 67 60 47 31 16 4 3 5 8 9 8 7 7 9 11 12 14 13 12 9 7 9 11 26 40 43 30
54 55 63 65 59 69 85 89 94 95 97 95 82 67 71 73 67 53 33 17 4 4 6 6 6 6 7 10 11 10 14 21 34 41 33 23 16 8 11 17 45 34 35
60 63 74 66 64 73 89 95 100 100 100 98 86 76 71 71 62 38 20 4 5 6 6 6 6 7 11 11 14 29 36 43 52 61 80 57 27 16 8 15 48 24 31
70 80 78 67 67 80 91 99 100 100 100 97 78 80 78 69 42 23 4 5 5 5 6 5 7 13 10 15 26 33 47 63 67 66 58 49 42 21 9 13 42 22 22
83 85 72 68 73 79 94 100 100 100 99 93 80 87 82 51 24 4 5 5 6 5 5 6 12 10 15 24 30 48 61 67 67 32 22 22 38 24 13 10 23 34 13

GFSSE_500_rhum_339.txt.gz
RH
8 8 8 8 9 9 9 9 9 10 10 11 12 12 13 13 14 14 15 16 16 18 18 18 16 15 13 12 10 9 8 7 7 7 6 6 7 6 5 4 4 4 4
8 7 7 8 8 9 9 9 10 10 11 12 13 13 13 14 14 14 15 16 17 17 18 19 18 16 15 14 12 11 9 8 8 8 7 7 7 7 6 6 4 3 4
6 7 7 7 8 8 9 10 10 11 12 13 14 14 14 14 15 15 16 17 18 18 19 20 20 20 19 16 15 13 10 9 9 9 9 8 7 7 7 6 5 4 4
7 7 7 7 7 8 9 10 11 12 13 14 14 14 14 15 16 16 16 16 18 20 22 23 24 23 23 21 20 19 14 10 8 8 9 8 8 7 7 6 6 6 6
6 6 7 7 7 8 9 9 10 12 14 14 14 15 15 17 18 18 18 18 18 18 20 24 27 28 28 26 24 24 24 18 9 8 8 8 7 6 7 7 7 7 7
6 6 7 7 7 8 8 9 11 14 15 16 15 17 18 18 19 20 20 20 19 18 18 22 26 32 35 36 35 30 28 28 22 10 7 6 6 7 8 9 10 10 8
6 6 7 8 8 9 9 10 12 15 16 16 18 18 19 21 22 21 21 21 21 22 24 26 28 30 36 40 41 42 42 35 24 13 11 9 6 7 10 11 11 9 8
5 6 7 8 8 11 12 13 15 15 17 18 18 20 22 24 24 23 25 30 31 30 29 26 28 34 38 44 46 52 52 43 29 19 16 16 14 12 13 13 11 9 8
6 7 7 8 10 11 14 15 17 18 20 21 22 25 27 28 27 27 35 35 31 29 24 24 26 29 34 41 52 57 53 30 24 22 20 22 22 19 16 14 13 12 11
6 7 9 10 12 13 16 18 21 23 25 26 28 30 28 26 34 36 36 34 35 33 30 26 26 32 42 47 57 54 42 31 26 25 25 25 22 20 17 13 11 9 9
7 9 12 12 14 17 19 23 28 30 30 32 33 33 32 40 40 39 41 41 41 39 33 31 35 46 51 53 53 50 46 42 37 29 23 15 14 12 9 8 7 7 6
8 10 13 15 16 19 23 28 31 33 35 37 38 38 42 44 52 54 52 50 52 45 46 53 54 55 55 52 49 42 33 25 16 12 10 8 7 6 6 5 5 5 4
9 12 15 17 19 24 27 31 33 37 41 42 46 46 49 58 62 60 58 57 56 57 53 50 54 52 46 40 33 23 15 13 11 9 7 5 5 4 3 3 3 4 4
10 13 16 18 23 26 28 30 37 42 45 48 51 56 63 68 67 67 60 63 68 58 55 51 50 48 40 25 18 15 12 9 6 5 4 3 2 2 2 4 6 8 10
14 17 18 21 25 28 31 36 42 43 46 49 61 67 72 72 71 69 68 76 58 58 55 53 54 45 27 20 17 12 7 5 3 2 2 2 4 6 8 11 11 11 16
23 23 24 25 28 35 38 40 42 45 49 62 69 73 76 77 77 80 80 70 56 56 53 53 40 32 23 17 8 4 3 2 2 2 3 5 11 14 13 10 8 12 21
27 27 28 31 36 41 44 42 44 48 58 69 74 82 86 88 94 87 87 58 57 54 53 42 34 24 14 5 3 2 2 3 3 4 5 8 14 13 9 7 8 15 26
30 30 37 39 41 44 50 53 50 51 58 70 81 88 89 98 92 92 64 62 58 58 51 36 24 11 2 2 3 3 3 4 4 6 8 10 11 9 8 7 8 18 30
36 48 53 48 51 51 54 64 56 52 62 78 82 88 97 96 98 92 68 59 62 56 40 25 7 2 3 3 4 4 5 5 6 7 9 10 10 9 8 8 8 21 28
60 62 64 59 55 58 63 68 56 61 73 85 80 90 88 99 96 74 62 62 66 45 27 5 2 3 4 4 5 5 5 6 8 9 9 8 8 8 8 8 8 21 27
71 69 74 74 59 65 73 62 69 79 86 83 84 93 91 91 94 64 62 73 51 28 4 3 4 4 4 4 5 8 8 11 11 12 12 11 10 8 7 7 9 18 30
80 80 87 72 71 77 66 74 84 80 82 86 88 92 91 92 66 69 80 58 29 4 3 4 5 5 4 4 6 8 10 14 20 27 27 26 20 14 9 8 8 15 38
86 88 87 79 80 66 85 91 89 87 88 89 91 92 94 85 79 87 64 34 5 3 4 5 5 4 4 6 8 9 14 20 32 40 44 50 48 33 17 9 8 14 41
86 93 88 86 65 87 95 94 96 94 94 94 95 95 95 93 95 74 36 5 4 4 5 6 5 4 6 7 11 20 26 33 40 48 74 72 62 51 26 16 8 14 46
96 94 89 69 87 97 95 100 99 98 100 100 100 97 98 94 83 43 8 4 5 6 6 5 4 5 7 14 21 29 43 51 43 34 37 59 31 17 15 17 9 14 48
93 77 74 91 98 98 100 99 99 100 96 98 100 100 96 90 49 10 5 6 6 7 6 4 5 7 16 24 36 46 44 29 31 45 47 30 18 10 9 14 11 14 45

GFSSE_500_rhum_342.txt.gz
RH
7 7 7 7 8 7 7 8 8 9 10 11 12 12 13 13 12 13 14 15 16 16 16 17 17 17 18 17 16 16 16 14 14 13 10 8 7 6 6 6 6 6 5
6 7 7 7 7 7 7 7 8 9 10 11 13 14 13 13 14 14 15 16 17 18 18 18 18 18 18 18 19 18 18 18 19 16 13 10 7 7 8 7 5 5 6
6 6 6 6 6 6 6 6 7 8 9 12 14 14 14 14 14 16 17 19 19 19 19 20 20 20 20 20 21 23 22 21 23 22 21 14 9 6 6 8 7 7 6
6 6 6 6 6 6 6 6 8 8 10 14 15 15 15 16 17 18 19 19 19 19 20 20 20 20 19 19 22 27 29 31 30 27 26 25 15 8 7 6 7 7 6
6 6 6 6 6 6 6 7 8 10 11 14 16 16 16 17 17 17 18 18 19 19 21 25 28 30 30 29 29 30 31 35 38 38 34 29 28 20 8 6 6 6 6
6 6 6 6 7 7 7 9 10 12 13 15 16 18 18 18 18 18 19 19 21 25 32 33 33 32 30 28 26 25 30 36 37 39 46 46 41 29 17 10 6 6 6
6 6 6 7 7 8 10 10 11 14 16 17 18 20 21 21 21 22 23 24 33 34 30 30 30 32 34 33 29 24 25 29 38 44 49 50 49 37 22 14 11 7 6
6 6 7 7 8 10 12 12 13 15 17 19 21 22 22 24 26 30 29 37 36 33 32 34 38 40 42 40 35 33 30 32 37 44 55 59 46 27 20 18 15 14 10
7 7 7 8 9 11 13 15 16 18 20 22 24 27 28 32 33 34 37 40 46 47 45 50 41 44 45 44 43 40 37 36 41 46 50 49 48 31 24 23 20 19 20
8 8 8 10 11 13 14 16 19 21 23 26 29 35 38 36 39 42 47 51 53 54 51 47 49 49 30 24 30 35 38 41 41 41 41 45 47 44 41 37 33 30 27
9 9 10 11 13 13 18 23 25 28 28 32 37 36 37 39 45 50 51 54 60 50 57 61 63 38 25 30 32 37 41 41 40 37 33 30 26 22 19 18 18 17 16
10 10 11 12 14 18 23 27 29 32 36 38 36 35 39 44 49 54 58 64 58 76 70 62 53 27 26 32 35 36 35 31 23 18 16 14 12 11 10 9 9 8 8
11 11 11 14 18 24 28 30 36 39 39 36 36 39 42 47 55 61 67 67 84 64 52 62 43 36 36 36 37 35 30 26 22 16 12 9 7 6 5 5 4 4 4
13 13 16 20 25 28 33 39 41 43 46 51 48 42 48 57 65 72 74 71 67 47 56 68 50 40 38 41 42 40 32 20 14 10 7 5 5 4 4 4 3 2 2
16 18 21 27 30 36 42 43 43 46 51 60 61 54 60 70 75 71 79 67 59 52 66 56 44 47 47 48 40 26 16 10 6 4 4 3 2 2 2 2 2 2 2
24 27 30 33 34 47 50 52 59 60 62 69 62 64 72 69 65 68 68 62 56 66 66 52 59 62 52 40 23 9 5 4 3 3 3 3 3 3 3 3 3 3 4
38 42 38 40 52 61 66 65 61 65 73 70 63 72 65 70 73 71 67 69 70 67 61 68 68 57 38 13 6 4 3 3 4 4 4 4 4 4 4 4 5 8 8
61 55 54 61 67 69 75 74 69 79 78 71 74 67 80 81 83 75 66 76 80 70 74 74 55 29 6 3 3 4 4 5 4 4 4 4 4 5 8 9 10 12 10
79 69 67 71 75 77 80 79 91 88 76 75 75 81 82 91 80 78 81 91 85 81 71 50 23 5 3 4 5 5 5 4 4 4 4 5 6 7 7 9 11 11 8
89 81 81 85 87 86 83 97 94 82 74 76 76 71 75 79 82 84 96 85 82 75 46 16 4 3 4 6 6 5 4 4 4 6 8 8 8 10 10 10 9 10 8
83 87 92 98 96 89 96 97 88 78 78 65 63 78 82 84 76 88 78 82 76 46 16 4 4 5 7 6 5 4 4 6 8 10 15 16 20 20 16 11 10 9 9
84 91 99 98 92 97 97 89 78 81 71 64 66 83 88 79 76 75 83 79 52 22 5 4 5 7 6 5 4 4 8 18 23 24 28 28 31 33 33 23 13 10 9
85 95 96 96 97 98 95 85 91 86 87 73 76 79 80 74 84 80 80 64 31 5 4 6 8 7 4 4 9 14 19 25 31 49 45 42 42 47 49 45 25 11 10
86 94 98 95 100 96 73 94 83 65 71 73 78 92 86 80 74 77 70 32 5 5 6 8 7 4 5 11 21 32 36 32 21 26 44 29 18 18 29 42 36 15 9
71 77 93 89 83 58 98 81 77 95 100 90 91 91 84 75 77 77 37 8 6 7 9 7 5 6 13 24 28 26 21 16 28 52 61 64 57 48 21 12 22 18 9
64 60 74 67 55 91 90 75 65 100 100 99 91 92 83 84 84 46 12 6 7 9 8 5 6 11 19 16 11 14 36 62 61 61 60 60 64 58 54 11 10 14 9

GFSSE_500_rhum_345.txt.gz
RH
6 6 7 6 6 6 5 5 5 6 7 8 8 11 13 13 13 12 13 13 14 16 17 17 18 18 19 18 19 19 20 21 21 19 20 20 21 19 13 9 7 6 6
6 5 5 5 6 5 5 5 6 6 7 7 9 11 13 14 14 14 14 15 15 16 16 17 17 17 19 20 21 22 22 22 23 25 25 24 25 24 22 13 7 6 5
6 5 5 5 5 6 6 6 6 6 7 8 10 12 13 13 14 16 17 17 16 17 17 18 18 20 25 28 30 30 31 30 28 28 29 33 32 30 27 26 13 6 5
5 5 5 5 6 6 6 7 8 9 9 10 11 12 13 14 17 18 18 19 19 20 21 22 25 32 33 32 33 32 31 30 29 28 28 32 35 38 35 30 27 16 7
5 5 5 5 6 6 6 8 9 10 10 11 12 13 15 17 19 20 21 23 24 26 26 28 34 31 30 30 32 29 28 32 34 30 26 27 28 32 34 41 38 31 16
5 5 5 6 6 6 7 8 9 10 11 12 14 17 18 20 22 22 25 29 30 30 30 34 34 34 38 35 34 31 34 35 35 36 34 29 27 29 32 30 33 43 36
6 6 6 7 7 7 8 9 11 13 12 15 19 21 23 25 26 27 30 34 34 36 37 39 41 43 44 39 38 38 38 35 33 32 33 37 36 34 35 40 43 41 38
7 7 8 8 8 8 9 10 12 13 16 20 22 24 27 28 30 32 36 37 37 44 46 45 43 45 44 38 37 39 32 18 17 23 27 29 36 44 46 49 57 52 38
8 8 9 9 9 10 10 13 13 16 20 24 28 30 31 34 35 37 38 39 41 43 44 45 48 45 42 45 39 35 20 15 18 24 29 38 44 46 49 48 46 46 33
10 10 11 11 10 11 14 16 18 22 27 31 33 36 38 37 35 34 36 37 42 47 50 47 44 40 39 39 36 41 28 22 23 26 33 38 43 44 43 44 49 45 39
14 14 13 12 12 15 18 20 24 28 30 35 39 41 45 53 52 43 38 39 45 49 48 43 40 38 38 35 45 50 36 28 28 28 33 33 32 28 23 23 23 28 34
17 15 14 15 18 20 22 26 30 33 38 41 42 48 54 57 56 48 43 47 48 48 42 41 41 39 39 46 48 41 35 33 33 33 35 35 32 27 24 18 15 14 14
18 16 17 22 23 24 29 32 39 47 46 54 59 63 64 64 58 50 54 52 50 47 45 49 44 40 44 46 45 41 42 43 42 38 37 32 24 22 17 15 11 8 7
18 19 26 30 30 32 36 41 57 64 66 65 62 67 73 67 58 59 58 57 52 47 52 45 47 54 52 51 52 52 51 46 41 33 23 15 12 10 8 7 6 6 5
24 26 31 35 43 44 46 64 70 71 79 77 74 77 73 65 63 59 53 52 50 46 48 51 52 56 55 51 48 46 39 27 16 11 9 7 6 6 6 5 5 4 4
39 44 40 50 56 54 66 76 81 80 83 83 86 71 66 62 49 40 44 47 51 53 52 52 59 63 57 51 41 30 18 10 8 6 5 4 3 3 3 2 2 2 2
62 64 62 69 64 68 81 95 94 90 87 92 76 68 56 46 46 49 54 54 56 48 51 58 63 61 51 39 23 10 5 5 5 4 4 4 4 4 4 4 4 4 3
73 88 82 71 73 84 98 100 98 91 94 82 73 65 60 57 54 57 57 63 58 60 64 64 62 53 27 11 5 5 4 4 5 5 5 5 4 4 4 3 3 3 3
90 91 85 79 76 83 98 97 94 95 83 78 66 69 59 52 54 56 70 72 65 66 65 67 55 28 5 4 4 5 6 6 5 4 4 4 4 4 4 4 5 5 4
86 90 83 77 77 91 99 94 96 84 81 65 64 57 53 62 64 72 75 71 66 65 66 56 21 6 5 5 7 6 5 4 5 6 9 10 11 10 11 10 9 8 8
84 91 88 88 92 99 95 96 93 77 86 72 52 68 77 93 80 73 70 75 75 75 68 31 6 5 6 7 7 5 5 7 13 16 21 21 22 23 23 22 19 15 11
77 76 81 89 97 94 95 99 66 99 84 64 54 53 64 85 81 73 77 81 80 76 48 10 5 6 9 7 5 4 5 13 21 14 15 17 20 28 35 36 32 29 18
74 85 82 76 67 82 99 89 91 96 75 62 54 60 71 83 91 83 91 83 80 61 10 5 6 9 8 5 4 4 7 11 14 19 28 33 35 30 22 28 37 40 32
64 69 70 54 67 94 90 100 89 78 68 74 73 79 84 100 96 94 87 79 63 13 6 7 10 9 5 4 7 18 33 36 35 53 57 49 46 48 57 51 20 26 36
68 77 63 42 92 97 100 95 72 78 75 77 85 87 100 96 100 88 83 68 13 7 8 11 11 6 4 10 27 39 44 48 46 47 66 63 56 52 56 58 54 14 28
91 98 48 77 100 98 88 76 88 74 78 98 97 100 96 99 94 88 74 16 8 8 12 13 7 5 8 32 38 42 48 52 57 61 65 74 75 67 64 61 58 25 15